Time,TemperatureF,DewpointF,PressureIn,WindDirection,WindDirectionDegrees,WindSpeedMPH,WindSpeedGustMPH,Humidity,HourlyPrecipIn,Conditions,Clouds,dailyrainin,SolarRadiationWatts/m^2,SoftwareType,DateUTC
2013-02-17 00:21:00,59.0,8.0,-100.00,WSW,245,0.0,5.0,13,0.00,,,0.00,0.000000,,2013-02-17 08:21:00,
2013-02-17 00:31:00,59.0,8.0,-100.00,WSW,245,0.0,5.0,13,0.00,,,0.00,0.000000,,2013-02-17 08:31:00,
2013-02-17 00:42:00,59.0,8.0,-100.00,WSW,245,0.0,5.0,13,0.00,,,0.00,0.000000,,2013-02-17 08:42:00,
2013-02-17 01:21:00,58.0,7.0,-100.00,ESE,105,0.0,5.0,13,0.00,,,0.00,0.000000,,2013-02-17 09:21:00,
2013-02-17 01:41:00,58.0,7.0,-100.00,ESE,105,0.0,5.0,13,0.00,,,0.00,0.000000,,2013-02-17 09:41:00,
2013-02-17 01:51:00,58.0,7.0,-100.00,ESE,105,0.0,5.0,13,0.00,,,0.00,0.000000,,2013-02-17 09:51:00,
2013-02-17 02:11:00,57.0,7.0,-100.00,SW,234,0.0,3.0,13,0.00,,,0.00,0.000000,,2013-02-17 10:11:00,
2013-02-17 02:21:00,57.0,7.0,-100.00,SW,234,0.0,3.0,13,0.00,,,0.00,0.000000,,2013-02-17 10:21:00,
2013-02-17 03:11:00,56.0,7.0,-100.00,WNW,295,0.0,6.0,14,0.00,,,0.00,0.000000,,2013-02-17 11:11:00,
2013-02-17 03:21:00,56.0,7.0,-100.00,WNW,295,0.0,6.0,14,0.00,,,0.00,0.000000,,2013-02-17 11:21:00,
2013-02-17 03:32:00,56.0,7.0,-100.00,WNW,295,0.0,6.0,14,0.00,,,0.00,0.000000,,2013-02-17 11:32:00,
2013-02-17 03:52:00,59.0,10.0,-100.00,NW,308,0.0,4.0,14,0.00,,,0.00,0.000000,,2013-02-17 11:52:00,
2013-02-17 04:22:00,59.0,10.0,-100.00,NW,308,0.0,4.0,14,0.00,,,0.00,0.000000,,2013-02-17 12:22:00,
2013-02-17 04:32:00,59.0,10.0,-100.00,NW,308,0.0,4.0,14,0.00,,,0.00,0.000000,,2013-02-17 12:32:00,
2013-02-17 04:42:00,59.0,10.0,-100.00,NW,308,0.0,4.0,14,0.00,,,0.00,0.000000,,2013-02-17 12:42:00,
2013-02-17 05:21:00,57.0,8.0,-100.00,WSW,252,0.0,7.0,14,0.00,,,0.00,0.000000,,2013-02-17 13:21:00,
2013-02-17 06:11:00,58.0,9.0,-100.00,East,101,0.0,6.0,14,0.00,,,0.00,0.000000,,2013-02-17 14:11:00,
2013-02-17 07:11:00,57.0,10.0,-100.00,West,267,0.0,5.0,15,-99.99,,,0.00,9.000000,,2013-02-17 15:11:00,
2013-02-17 07:21:00,57.0,10.0,-100.00,West,267,0.0,5.0,15,-99.99,,,0.00,9.000000,,2013-02-17 15:21:00,
2013-02-17 07:41:00,57.0,10.0,-100.00,West,267,0.0,5.0,15,-99.99,,,0.00,9.000000,,2013-02-17 15:41:00,
2013-02-17 07:51:00,57.0,10.0,-100.00,West,267,0.0,5.0,15,-99.99,,,0.00,9.000000,,2013-02-17 15:51:00,
2013-02-17 08:11:00,67.0,11.0,-100.00,South,190,4.0,7.0,11,0.00,,,0.00,188.000000,,2013-02-17 16:11:00,
2013-02-17 08:21:00,67.0,11.0,-100.00,South,190,4.0,7.0,11,0.00,,,0.00,188.000000,,2013-02-17 16:21:00,
2013-02-17 08:52:00,69.0,18.0,-100.00,NNE,26,0.0,6.0,14,-99.99,,,0.00,415.000000,,2013-02-17 16:52:00,
2013-02-17 09:11:00,69.0,18.0,-100.00,NNE,26,0.0,6.0,14,-99.99,,,0.00,415.000000,,2013-02-17 17:11:00,
2013-02-17 09:21:00,69.0,18.0,-100.00,NNE,26,0.0,6.0,14,-99.99,,,0.00,415.000000,,2013-02-17 17:21:00,
2013-02-17 09:41:00,69.0,18.0,-100.00,NNE,26,0.0,6.0,14,-99.99,,,0.00,415.000000,,2013-02-17 17:41:00,
2013-02-17 09:52:00,74.0,20.0,-100.00,NE,55,1.0,6.0,13,0.00,,,0.00,648.000000,,2013-02-17 17:52:00,
2013-02-17 10:21:00,74.0,20.0,-100.00,NE,55,1.0,6.0,13,0.00,,,0.00,648.000000,,2013-02-17 18:21:00,
2013-02-17 10:33:00,74.0,20.0,-100.00,NE,55,1.0,6.0,13,0.00,,,0.00,648.000000,,2013-02-17 18:33:00,
2013-02-17 10:42:00,74.0,20.0,-100.00,NE,55,1.0,6.0,13,0.00,,,0.00,648.000000,,2013-02-17 18:42:00,
2013-02-17 11:21:00,77.0,16.0,-100.00,ENE,73,6.0,9.0,10,0.00,,,0.00,824.000000,,2013-02-17 19:21:00,
2013-02-17 11:32:00,77.0,16.0,-100.00,ENE,73,6.0,9.0,10,0.00,,,0.00,824.000000,,2013-02-17 19:32:00,
2013-02-17 11:41:00,77.0,16.0,-100.00,ENE,73,6.0,9.0,10,0.00,,,0.00,824.000000,,2013-02-17 19:41:00,
2013-02-17 11:51:00,77.0,16.0,-100.00,ENE,73,6.0,9.0,10,0.00,,,0.00,824.000000,,2013-02-17 19:51:00,
2013-02-17 11:52:00,77.0,14.0,-100.00,East,91,6.0,11.0,9,0.00,,,-99.99,916.000000,,2013-02-17 19:52:00,
2013-02-17 12:11:00,77.0,14.0,-100.00,East,91,6.0,11.0,9,0.00,,,-99.99,916.000000,,2013-02-17 20:11:00,
2013-02-17 12:21:00,77.0,14.0,-100.00,East,91,6.0,11.0,9,0.00,,,-99.99,916.000000,,2013-02-17 20:21:00,
2013-02-17 12:31:00,77.0,14.0,-100.00,East,91,6.0,11.0,9,0.00,,,-99.99,916.000000,,2013-02-17 20:31:00,
2013-02-17 12:42:00,77.0,14.0,-100.00,East,91,6.0,11.0,9,0.00,,,-99.99,916.000000,,2013-02-17 20:42:00,
2013-02-17 12:52:00,78.0,12.0,-100.00,East,84,6.0,11.0,8,0.00,,,0.00,927.000000,,2013-02-17 20:52:00,
2013-02-17 13:21:00,78.0,12.0,-100.00,East,84,6.0,11.0,8,0.00,,,0.00,927.000000,,2013-02-17 21:21:00,
2013-02-17 13:31:00,78.0,12.0,-100.00,East,84,6.0,11.0,8,0.00,,,0.00,927.000000,,2013-02-17 21:31:00,
2013-02-17 13:41:00,78.0,12.0,-100.00,East,84,6.0,11.0,8,0.00,,,0.00,927.000000,,2013-02-17 21:41:00,
2013-02-17 13:52:00,78.0,15.0,-100.00,East,101,5.0,11.0,9,0.00,,,0.00,856.000000,,2013-02-17 21:52:00,
2013-02-17 14:12:00,78.0,15.0,-100.00,East,101,5.0,11.0,9,0.00,,,0.00,856.000000,,2013-02-17 22:12:00,
2013-02-17 14:21:00,78.0,15.0,-100.00,East,101,5.0,11.0,9,0.00,,,0.00,856.000000,,2013-02-17 22:21:00,
2013-02-17 14:32:00,78.0,15.0,-100.00,East,101,5.0,11.0,9,0.00,,,0.00,856.000000,,2013-02-17 22:32:00,
2013-02-17 14:41:00,78.0,15.0,-100.00,East,101,5.0,11.0,9,0.00,,,0.00,856.000000,,2013-02-17 22:41:00,
2013-02-17 14:52:00,79.0,15.0,-100.00,ESE,108,2.0,11.0,9,0.00,,,0.00,711.000000,,2013-02-17 22:52:00,
2013-02-17 15:11:00,79.0,15.0,-100.00,ESE,108,2.0,11.0,9,0.00,,,0.00,711.000000,,2013-02-17 23:11:00,
2013-02-17 15:21:00,79.0,15.0,-100.00,ESE,108,2.0,11.0,9,0.00,,,0.00,711.000000,,2013-02-17 23:21:00,
2013-02-17 15:31:00,79.0,15.0,-100.00,ESE,108,2.0,11.0,9,0.00,,,0.00,711.000000,,2013-02-17 23:31:00,
2013-02-17 15:41:00,79.0,15.0,-100.00,ESE,108,2.0,11.0,9,0.00,,,0.00,711.000000,,2013-02-17 23:41:00,
2013-02-17 16:11:00,81.0,11.0,-100.00,NW,324,0.0,8.0,7,0.00,,,0.00,502.000000,,2013-02-18 00:11:00,
2013-02-17 16:22:00,81.0,11.0,-100.00,NW,324,0.0,8.0,7,0.00,,,0.00,502.000000,,2013-02-18 00:22:00,
2013-02-17 16:31:00,81.0,11.0,-100.00,NW,324,0.0,8.0,7,0.00,,,0.00,502.000000,,2013-02-18 00:31:00,
2013-02-17 17:21:00,74.0,16.0,-100.00,SW,232,3.0,9.0,11,0.00,,,0.00,179.000000,,2013-02-18 01:21:00,
2013-02-17 17:31:00,74.0,16.0,-100.00,SW,232,3.0,9.0,11,0.00,,,0.00,179.000000,,2013-02-18 01:31:00,
2013-02-17 17:41:00,74.0,16.0,-100.00,SW,232,3.0,9.0,11,0.00,,,0.00,179.000000,,2013-02-18 01:41:00,
2013-02-17 17:51:00,74.0,16.0,-100.00,SW,232,3.0,9.0,11,0.00,,,0.00,179.000000,,2013-02-18 01:51:00,
2013-02-17 17:52:00,72.0,22.0,-100.00,WNW,299,5.0,8.0,15,0.00,,,-99.99,11.000000,,2013-02-18 01:52:00,
2013-02-17 18:21:00,72.0,22.0,-100.00,WNW,299,5.0,8.0,15,0.00,,,-99.99,11.000000,,2013-02-18 02:21:00,
2013-02-17 18:32:00,72.0,22.0,-100.00,WNW,299,5.0,8.0,15,0.00,,,-99.99,11.000000,,2013-02-18 02:32:00,
2013-02-17 18:41:00,72.0,22.0,-100.00,WNW,299,5.0,8.0,15,0.00,,,-99.99,11.000000,,2013-02-18 02:41:00,
2013-02-17 19:11:00,68.0,24.0,-100.00,SSW,195,1.0,8.0,19,0.00,,,0.00,0.000000,,2013-02-18 03:11:00,
2013-02-17 19:21:00,68.0,24.0,-100.00,SSW,195,1.0,8.0,19,0.00,,,0.00,0.000000,,2013-02-18 03:21:00,
2013-02-17 19:31:00,68.0,24.0,-100.00,SSW,195,1.0,8.0,19,0.00,,,0.00,0.000000,,2013-02-18 03:31:00,
2013-02-17 19:42:00,68.0,24.0,-100.00,SSW,195,1.0,8.0,19,0.00,,,0.00,0.000000,,2013-02-18 03:42:00,
2013-02-17 19:51:00,68.0,24.0,-100.00,SSW,195,1.0,8.0,19,0.00,,,0.00,0.000000,,2013-02-18 03:51:00,
2013-02-17 20:21:00,63.0,24.0,-100.00,SSW,213,0.0,8.0,22,0.00,,,0.00,0.000000,,2013-02-18 04:21:00,
2013-02-17 20:32:00,63.0,24.0,-100.00,SSW,213,0.0,8.0,22,0.00,,,0.00,0.000000,,2013-02-18 04:32:00,
2013-02-17 20:41:00,63.0,24.0,-100.00,SSW,213,0.0,8.0,22,0.00,,,0.00,0.000000,,2013-02-18 04:41:00,
2013-02-17 20:51:00,63.0,24.0,-100.00,SSW,213,0.0,8.0,22,0.00,,,0.00,0.000000,,2013-02-18 04:51:00,
2013-02-17 21:11:00,63.0,24.0,-100.00,South,180,1.0,5.0,22,0.00,,,0.00,0.000000,,2013-02-18 05:11:00,
2013-02-17 21:21:00,63.0,24.0,-100.00,South,180,1.0,5.0,22,0.00,,,0.00,0.000000,,2013-02-18 05:21:00,
2013-02-17 21:31:00,63.0,24.0,-100.00,South,180,1.0,5.0,22,0.00,,,0.00,0.000000,,2013-02-18 05:31:00,
2013-02-17 21:41:00,63.0,24.0,-100.00,South,180,1.0,5.0,22,0.00,,,0.00,0.000000,,2013-02-18 05:41:00,
2013-02-17 21:51:00,63.0,24.0,-100.00,South,180,1.0,5.0,22,0.00,,,0.00,0.000000,,2013-02-18 05:51:00,
2013-02-17 22:21:00,60.0,27.0,-100.00,SSW,198,0.0,5.0,28,0.00,,,0.00,0.000000,,2013-02-18 06:21:00,
2013-02-17 22:31:00,60.0,27.0,-100.00,SSW,198,0.0,5.0,28,0.00,,,0.00,0.000000,,2013-02-18 06:31:00,
2013-02-17 22:41:00,60.0,27.0,-100.00,SSW,198,0.0,5.0,28,0.00,,,0.00,0.000000,,2013-02-18 06:41:00,
2013-02-17 22:51:00,60.0,27.0,-100.00,SSW,198,0.0,5.0,28,0.00,,,0.00,0.000000,,2013-02-18 06:51:00,
2013-02-17 23:11:00,59.0,28.0,-100.00,SSW,208,0.0,7.0,31,0.00,,,0.00,0.000000,,2013-02-18 07:11:00,
2013-02-17 23:21:00,59.0,28.0,-100.00,SSW,208,0.0,7.0,31,0.00,,,0.00,0.000000,,2013-02-18 07:21:00,
2013-02-17 23:31:00,59.0,28.0,-100.00,SSW,208,0.0,7.0,31,0.00,,,0.00,0.000000,,2013-02-18 07:31:00,
2013-02-17 23:42:00,59.0,28.0,-100.00,SSW,208,0.0,7.0,31,0.00,,,0.00,0.000000,,2013-02-18 07:42:00,
2013-02-17 23:51:00,59.0,28.0,-100.00,SSW,208,0.0,7.0,31,0.00,,,0.00,0.000000,,2013-02-18 07:51:00,
2013-02-17 23:52:00,57.0,25.0,-100.00,East,96,0.0,5.0,29,0.00,,,0.00,0.000000,,2013-02-18 07:52:00,